Weather in Nereta

Latvia     56°12′10″N   25°18′29″E
temp.,
°C
wind,
m/s
gust,
m/s
humid.,
%
clouds,
%
prec.,
mm/h
press.,
hPa
HPBL,
m
13 april, tue
tue1300:00+10ese2478100 0.2 101899
03:00+9w238699 0.2 101891
06:00+6nw3692100 0.0 1020311
09:00+5nw4888100 0.0 1021423
12:00+5nnw4683100 0.0 1022587
15:00+4nnw4790100 1.8 1022586
18:00+2nnw4996100 1.0 1022564
21:00+2nnw41197100 2.7 1022464
14 april, wed
wed1400:00+1nnw41097100 1.0 1021435
03:00+1n41197100 2.0 1021465
06:00+1nne31094100 0.3 1021560
09:00+3nne3881100 0.4 1021657
12:00+6nne3666100 0.0 1021980
15:00+6nne4676100 0.1 1021938
18:00+5ne3887100 0.1 1020874
21:00+4ne41196100 0.3 1021821
15 april, thu
thu1500:00+3ne41290100 0.1 1021748
03:00+4nne4128496 0.1 1021701
06:00+4nne41279100 0.0 1021616
09:00+4ne41279100 0.0 1021632
12:00+5ne51273100 0.0 1022767
15:00+5ne51382100 0.4 1022813
18:00+4ne41385100 1.0 1022847
21:00
16 april, fri
fri1600:00+6ne51485100 0.4 1021795
03:00+6ne51384100 0.4 1021686
06:00+5ne51387100 0.1 1021604
09:00+5ne51390100 0.2 1021551
12:00+7ne5138488 0.1 1022601
15:00+10ene51173100 0.1 1022766
18:00+10ne51176100 0.4 1022878
21:00+8ne51373100 0.0 1025643
17 april, sat
sat1700:00+7ne51473100 0.0 1024500
03:00+5ne41277100 0.0 1025389
06:00+4ene4127996 0.0 1025386
09:00+7ene5127285 0.0 1026495
12:00+12ene586042 0.0 1027886
15:00+14ene575311 0.0 10271387
18:00+14ene47565 0.0 10271428
21:00+8ene310725 0.0 1029238